Home   Weather   Hanau   Past weeks

Flag for Germany Past Weather in Hanau, Hesse, Germany — Yesterday and Last 2 Weeks

Now
46 °F

Sunny.


Feels Like: 41 °F
Forecast: 45 / 55 °F
Wind: 12 mph from Northeast

Location: Frankfurt-M-Flughafen Airport

Current Time: Apr 30, 2017 at 8:54:09 am

Latest Report: Apr 30, 2017 at 8:20 am


Visibility: 10 mi

Pressure: 29.98 "Hg

Humidity: 62%

Dew Point: 34 °F

Location of HanauLocation

Past Weather in Hanau — Graph

°F

Hanau Temperature Yesterday

Maximum temperature yesterday: 61 °F (at 5:20 pm)
Minimum temperature yesterday: 41 °F (at 3:50 am)
Average temperature yesterday: 50 °F

High & Low Weather Summary for the Past Weeks

 TemperatureHumidityPressure
High63 °F (Apr 24, 5:20 pm)100% (Apr 17, 10:20 am)30.60 "Hg (Apr 17, 10:20 am)
Low27 °F (Apr 20, 4:20 am)24% (Apr 26, 4:20 pm)29.68 "Hg (Apr 25, 3:50 am)
Average46 °F60%30.12 "Hg
* Reported Apr 15 7:20 am — Apr 30 7:50 am, Hanau, Weather by CustomWeather, © 2017

Note: Actual official high and low records may vary slightly from our data, if they occured in-between our weather recording intervals... More about our weather records

Advertising

Hanau Weather History for the Previous 24 Hours

Scroll right to see more
 ConditionsComfort  
Time TempWeatherWind HumidityBarometerVisibility
7:50 am
Sun, Apr 30
45 °FSunny.9 mph61%30.01 "Hg10 mi
7:20 am43 °FSunny.12 mph61%30.01 "Hg10 mi
6:50 am43 °FSunny.9 mph61%29.98 "Hg10 mi
6:20 am43 °FSunny.10 mph61%29.98 "Hg10 mi
5:50 am41 °FClear.10 mph66%29.98 "Hg10 mi
5:20 am43 °FClear.10 mph61%29.98 "Hg10 mi
4:50 am43 °FClear.10 mph61%30.01 "Hg10 mi
4:20 am43 °FClear.10 mph61%30.01 "Hg10 mi
3:50 am43 °FClear.12 mph61%30.01 "Hg10 mi
3:20 am43 °FClear.10 mph61%30.01 "Hg10 mi
2:50 am45 °FClear.10 mph57%30.01 "Hg10 mi
2:20 am45 °FClear.10 mph57%30.01 "Hg10 mi
1:50 am45 °FClear.9 mph57%30.01 "Hg10 mi
1:20 am46 °FClear.9 mph53%30.01 "Hg10 mi
12:50 am46 °FClear.10 mph53%30.01 "Hg10 mi
12:20 am46 °FClear.12 mph57%30.01 "Hg10 mi
11:50 pm
Sat, Apr 29
48 °FClear.10 mph54%30.01 "Hg10 mi
11:20 pm48 °FClear.10 mph54%30.01 "Hg10 mi
10:50 pm50 °FClear.13 mph50%30.01 "Hg10 mi
9:50 pm52 °FClear.9 mph44%30.01 "Hg10 mi
9:20 pm54 °FClear.13 mph41%30.01 "Hg10 mi
8:50 pm55 °FPassing clouds.10 mph38%30.01 "HgN/A
8:20 pm57 °FSunny.12 mph36%30.01 "Hg10 mi
7:50 pm59 °FSunny.8 mph31%29.98 "Hg10 mi
7:20 pm59 °FPassing clouds.3 mph31%29.98 "HgN/A
6:50 pm61 °FPassing clouds.5 mph31%29.98 "HgN/A
6:20 pm59 °FPassing clouds.6 mph31%30.01 "HgN/A
5:50 pm59 °FSunny.6 mph31%30.01 "Hg10 mi
5:20 pm61 °FPassing clouds.6 mph29%30.01 "HgN/A
4:50 pm59 °FSunny.5 mph31%30.01 "Hg10 mi
4:20 pm59 °FPassing clouds.7 mph34%30.01 "HgN/A
3:50 pm59 °FPassing clouds.7 mph31%30.01 "HgN/A
3:20 pm57 °FSunny.2 mph36%30.04 "Hg10 mi
2:50 pm57 °FPassing clouds.10 mph36%30.04 "HgN/A
2:20 pm55 °FPassing clouds.8 mph38%30.04 "HgN/A
1:50 pm57 °FPassing clouds.10 mph36%30.04 "HgN/A
12:50 pm55 °FPassing clouds.10 mph41%30.04 "HgN/A
12:20 pm52 °FScattered clouds.8 mph44%30.07 "HgN/A
11:50 am52 °FScattered clouds.10 mph47%30.07 "HgN/A
11:20 am52 °FScattered clouds.8 mph47%30.07 "HgN/A
10:50 am52 °FPassing clouds.2 mph50%30.07 "HgN/A
9:50 am52 °FPassing clouds.7 mph58%30.07 "HgN/A
9:20 am48 °FScattered clouds.7 mph62%30.07 "HgN/A
8:50 am48 °FPassing clouds.7 mph66%30.07 "HgN/A
8:20 am45 °FPassing clouds.5 mph76%30.07 "HgN/A
Weather by CustomWeather, © 2017

See weather overviewHow to use our weather pages